Location: Pont Talgareg
(52.1333°N, 4.3000°W)
Time: 22:31:45
(UTC+00:00)

Daily predictions for brighter satellites

Satellite Brightness Start Highest point End
(mag) Time Altitude Azimuth Time Altitude Azimuth Time Altitude Azimuth
CREW DRAGON DEMO-1 DEB 3.3 18:37:44 10° W 18:40:42 54° SSW 18:43:41 10° ESE
CZ-4B R/B 3.6 18:38:26 10° N 18:41:34 32° WNW 18:44:42 10° SW
Cosmos 1536 Rocket 4.1 18:38:20 10° N 18:42:34 41° ENE 18:46:49 10° SE
Cosmos 1125 Rocket 4.4 18:43:05 10° SSE 18:47:34 29° E 18:52:05 10° NE
SJ-6B 4.2 18:49:08 10° ESE 18:51:57 20° ENE 18:54:49 10° NNE
USA 238 DEB 4.1 18:45:12 10° NW 18:52:22 78° SW 18:59:50 10° SE
USA 238 4.1 18:45:19 10° NW 18:52:29 78° SW 18:59:57 10° SE
CZ-2D R/B 4.1 18:50:12 10° S 18:54:02 57° W 18:57:52 10° NNW
CZ-4 R/B 1.8 18:49:55 10° S 18:54:06 70° WSW 18:58:16 10° NNW
Cosmos 2150 Rocket 4.4 18:49:14 10° S 18:54:21 45° ESE 18:59:33 10° NE
Cosmos 1674 3.4 18:51:26 10° N 18:55:00 34° ENE 18:58:30 10° SE
SJ-11-01 4.3 18:50:32 10° SSE 18:55:12 66° ENE 18:59:52 10° N
GP-B 4.4 18:51:36 10° N 18:55:53 47° W 19:00:08 10° SSW
Cosmos 1464 Rocket 4.0 18:50:14 10° S 18:56:13 58° E 19:02:18 10° NNE
CZ-2C R/B 3.2 18:50:53 10° SSE 18:56:18 82° ENE 19:02:02 10° NNW
Cosmos 1782 Rocket 4.1 18:52:35 10° SSW 18:57:00 67° WNW 19:01:29 10° N
Okean-O 3.4 18:53:37 10° S 18:57:59 58° WSW 19:02:23 10° NNW
PSLV R/B 4.5 18:55:25 10° N 18:59:34 66° WNW 19:03:45 10° SSW
MOS 1 Rocket 3.6 18:58:01 10° NNE 19:02:07 37° E 19:06:06 10° SSE
FREGAT/IRIS 4.0 19:04:41 14° E 19:05:33 17° ENE 19:07:20 10° NNE
In-Cosmos 22 4.1 19:03:52 10° NNW 19:09:12 88° WSW 19:14:36 10° S
Cosmos 1048 Rocket 4.2 19:04:55 10° NNW 19:10:15 78° WSW 19:15:37 10° SSE
ARGOS 3.1 19:06:35 10° SSE 19:11:54 68° ENE 19:17:16 10° N
CZ-2C R/B 3.5 19:07:24 10° NNE 19:12:12 29° E 19:17:00 10° SSE
Cosmos 1340 Rocket 4.4 19:15:11 15° E 19:15:35 16° E 19:18:00 10° NE
Lacrosse 5 rocket 2.3 19:12:42 10° WNW 19:16:52 44° N 19:20:43 13° ENE
DMSP B5D1-3 4.4 19:11:54 10° NNE 19:17:01 73° ESE 19:22:07 10° S
Cosmos 1733 4.4 19:14:12 10° SE 19:17:12 22° E 19:20:12 10° NE
Cosmos 2082 Rocket 3.4 19:12:52 10° NNW 19:17:37 27° NE 19:21:17 15° E
Cosmos 2151 Rocket 3.6 19:13:25 10° S 19:17:50 62° E 19:22:19 10° NNE
HJ-1C 3.5 19:15:26 10° S 19:18:43 75° WSW 19:22:03 10° NNW
NOSS 2-2 (C) 3.5 19:15:42 10° SW 19:19:15 69° NW 19:23:27 10° NE
BREEZE-M DEB (TANK) 3.9 19:18:23 10° W 19:21:05 31° SSW 19:27:25 10° SE
Cosmos 1891 Rocket 4.4 19:16:18 10° S 19:22:24 89° ESE 19:28:29 10° N
Cosmos 494 Rocket 4.0 19:17:45 10° NNW 19:23:03 89° WSW 19:28:20 10° SSE
COSMO-SKYMED 1 4.2 19:21:16 10° N 19:25:19 38° WNW 19:29:20 10° SW
Meteor 1-15 Rocket 4.3 19:23:04 10° S 19:28:35 56° E 19:34:14 10° NNE
Cosmos 1805 3.7 19:25:20 10° SSE 19:28:59 39° E 19:32:40 10° NNE
OBJECT-B 2.0 19:28:48 22° E 19:29:33 24° ENE 19:32:16 10° N
SL-08 RB Rocket 3.6 19:29:12 10° SSE 19:33:45 74° ENE 19:38:17 10° N
Ariane Rocket 3.0 19:28:45 10° SSE 19:33:45 65° ENE 19:38:49 10° N
SJ 16-02 4.3 19:32:16 10° W 19:34:51 15° NW 19:37:27 10° N
Cosmos 1269 Rocket 4.0 19:29:39 10° NNW 19:35:00 70° ENE 19:39:33 14° SE
H-2A R/B 2.4 19:30:14 10° S 19:35:13 65° WSW 19:40:23 10° NNW
USA 116 4.0 19:31:44 10° N 19:35:18 67° WNW 19:39:18 10° SSW
Nadezhda 4 Rocket 4.0 19:30:17 10° NNW 19:36:26 82° W 19:42:33 10° S
KORONAS-FOTON 3.8 19:32:40 10° N 19:36:38 88° ENE 19:40:33 10° S
NOSS 7 (A) 4.5 19:36:28 10° SW 19:39:37 89° SE 19:41:53 16° NE
Cosmos 1626 2.4 19:36:47 10° N 19:40:21 44° ENE 19:42:01 26° SE
Cosmos 2263 Rocket 3.9 19:38:02 10° WSW 19:43:03 33° NW 19:48:08 10° NNE
COSMOS 2406 3.2 19:38:26 10° NNW 19:44:07 65° NE 19:47:56 21° SE
USA 186 1.7 19:42:34 15° SSE 19:45:11 89° E 19:48:30 10° NNW
MetOp-A 4.1 19:40:20 12° SSE 19:45:18 66° ENE 19:50:38 10° N
ISS -3.8 19:43:09 10° W 19:46:32 79° S 19:47:46 36° E
Cosmos 1844 Rocket 2.6 19:41:24 10° SSW 19:46:59 89° ESE 19:52:38 10° NNE
ATLAS CENTAUR R/B 3.7 19:46:44 10° NNW 19:48:18 12° N 19:49:52 10° NNE
Cosmos 2278 Rocket 3.1 19:51:32 25° ESE 19:51:32 25° ESE 19:56:01 10° NE
Lacrosse 4 Rocket 2.2 19:47:50 10° NNW 19:51:38 36° NE 19:52:52 29° E
IRS-1A Rocket 4.4 19:48:44 10° SSE 19:54:38 89° WSW 20:00:29 10° NNW
Cosmos 1844 3.6 19:48:59 10° SSW 19:54:40 84° ESE 20:00:20 10° NNE
Meteor 2-5 Rocket 3.7 19:49:00 10° NNW 19:54:43 86° E 20:00:30 10° SSE
Cosmos 909 Rocket 4.4 19:49:57 10° NW 19:56:34 52° NE 19:59:55 26° ESE
Meteor 1-24 Rocket 3.6 19:51:28 10° N 19:57:02 72° ENE 20:01:37 16° SSE
Cosmos 2034 Rocket 4.2 19:51:00 10° SSW 19:57:22 77° WNW 20:03:43 10° N
Exosat Rocket 3.4 19:53:54 10° SSW 19:59:07 73° ESE 20:04:11 10° NNE
SL-14 R/B 3.2 19:56:25 10° N 20:00:20 65° ENE 20:01:55 34° SSE
Okean 1 Rocket 3.0 19:57:04 10° S 20:01:32 80° E 20:06:04 10° NNE
NOSS 3-4 (A) 3.5 19:56:16 10° SSW 20:01:57 50° ESE 20:08:03 10° NE
NOSS 3-4 (C) 3.5 19:56:23 10° SSW 20:02:04 49° ESE 20:08:09 10° NE
Resurs 01 Rocket 2.1 20:03:26 36° ESE 20:04:28 42° ENE 20:08:41 10° N
Cosmos 1833 Rocket 2.6 20:03:32 10° NNW 20:09:14 74° ENE 20:11:54 32° SE
Cosmos 1470 4.5 20:12:29 20° NE 20:12:29 20° NE 20:14:02 10° NNE
Cosmos 1766 3.2 20:06:47 10° S 20:10:42 88° E 20:14:42 10° N
Cosmos 2251 Rocket 3.9 20:06:56 10° NNW 20:12:09 47° ENE 20:13:44 36° ESE
Abrixas rocket 4.3 20:11:58 10° WSW 20:13:27 14° SSW 20:13:27 14° SSW
CENTAUR R/B 3.9 20:06:01 10° NW 20:13:39 49° WSW 20:21:57 10° SSE
ERS-1 Rocket 4.4 20:17:40 21° ENE 20:17:54 21° NE 20:21:40 10° N
ARIANE 5 R/B 3.3 20:20:05 36° ENE 20:20:05 36° ENE 20:24:00 10° N
SPOT 3 Rocket 3.4 20:20:51 34° SSE 20:23:07 80° ENE 20:28:18 10° NNW
ATLAS 2AS CENTAUR R/B 3.0 20:16:50 10° SSW 20:24:41 66° SE 20:32:27 10° NE
Cosmos 1634 Rocket 3.9 20:18:46 10° S 20:24:57 84° E 20:31:12 10° NNE
SJ-6B 3.7 20:24:09 21° SSW 20:26:21 45° W 20:30:02 10° NNW
ATLAS 3B R/B 2.7 20:19:35 10° NW 20:26:27 83° SW 20:29:50 34° SE
Cosmos 1892 Rocket 3.4 20:23:04 10° N 20:27:27 90° SE 20:28:36 49° S
Resurs 1-3 3.5 20:26:17 42° S 20:27:45 86° WSW 20:32:11 10° NNW
Landsat 7 4.4 20:27:59 39° ENE 20:28:07 39° ENE 20:32:33 10° N
Cosmos 1125 Rocket 4.3 20:24:10 10° SW 20:29:23 54° WNW 20:34:37 10° NNE
SPOT 5 4.3 20:33:48 27° ENE 20:33:53 27° ENE 20:38:18 10° N
Cosmos 1655 Rocket 4.0 20:29:41 10° N 20:35:57 62° ENE 20:37:50 44° SE
Cosmos 1461 3.9 20:34:28 10° NW 20:39:01 40° NE 20:39:30 39° NE
Cosmos 2026 Rocket 4.5 20:34:46 10° NNW 20:41:03 60° W 20:46:52 12° S
CRYOSAT 2 4.2 20:46:05 10° N 20:51:01 79° E 20:51:20 75° SE
Cosmos 1340 Rocket 3.3 20:50:42 47° SW 20:51:34 59° WNW 20:55:34 10° N
CZ-2C R/B 3.3 20:47:22 10° N 20:52:49 57° WNW 20:58:17 10° SW
Lacrosse 5 rocket 1.6 20:52:05 10° WNW 20:56:20 71° N 20:56:20 71° N
Cosmos 2180 Rocket 4.4 20:57:17 46° S 20:59:19 77° E 21:05:42 10° NNE
MetOp-B 4.0 20:58:51 69° SSE 20:59:32 87° ENE 21:04:56 10° NNW
Cosmos 2098 Rocket 3.8 20:53:30 10° N 21:00:26 87° E 21:01:45 58° SSE
Cosmos 2279 Rocket 3.9 20:57:30 25° SSW 21:01:25 85° W 21:07:45 10° N
OBJECT-B 2.9 21:02:00 26° W 21:02:00 26° W 21:04:39 10° NW
Cosmos 2082 Rocket 2.1 20:56:43 10° NNW 21:02:22 81° WSW 21:03:08 67° S
Spot 2 Rocket 3.4 21:05:26 71° NE 21:05:26 71° NE 21:10:15 10° NNW
Cosmos 1602 Rocket 4.4 21:02:35 10° N 21:05:44 44° NNE 21:05:44 44° NNE
Cosmos 1809 Rocket 4.3 21:07:44 10° N 21:13:58 70° ENE 21:14:13 69° E
Cosmos 1626 Rocket 4.2 21:14:07 10° NNW 21:17:39 54° NNW 21:17:39 54° NNW
Terra 3.1 21:21:44 31° NNE 21:21:44 31° NNE 21:24:42 10° N
Cosmos 1140 Rocket 4.2 21:17:13 10° NNW 21:21:18 43° NNE 21:21:18 43° NNE
ISS -0.9 21:19:57 10° W 21:20:44 16° W 21:20:44 16° W
Cosmos 1455 Rocket 3.9 21:24:23 49° NW 21:24:23 49° NW 21:28:11 10° N
Cosmos 407 Rocket 4.0 21:22:16 10° NNW 21:26:26 52° NNE 21:26:26 52° NNE
ATLAS CENTAUR R/B 3.7 21:25:53 10° NNW 21:27:26 16° N 21:27:26 16° N
SPOT 1/Viking Rocket 3.7 21:29:23 71° NW 21:29:23 71° NW 21:34:01 10° NNW
Lacrosse 4 Rocket 3.1 21:26:33 10° NW 21:29:10 30° W 21:29:10 30° W
Meteor 2-14 Rocket 4.4 21:28:40 10° N 21:34:33 77° NE 21:34:33 77° NE
Cosmos 2278 Rocket 2.4 21:33:01 39° SW 21:35:06 69° NW 21:40:47 10° NNE
Resurs 01 Rocket 3.3 21:41:01 28° W 21:41:06 28° W 21:44:57 10° NW
Cosmos 2266 Rocket 4.2 21:38:43 10° NNW 21:44:39 60° W 21:45:08 58° WSW
Cosmos 1833 Rocket 4.4 21:48:15 10° NW 21:52:37 23° WSW 21:53:37 22° WSW
NOSS 3-4 (A) 4.1 21:46:57 10° WSW 21:52:52 52° NNW 21:59:19 10° NE
NOSS 3-4 (C) 4.1 21:47:04 10° WSW 21:52:58 53° NNW 21:59:26 10° NE
ERS-1 Rocket 3.9 21:57:40 46° NNW 21:57:40 46° NNW 22:01:16 10° NNW
ARIANE 5 R/B 4.4 21:57:38 27° WNW 21:57:38 27° WNW 22:00:25 10° NNW
SPOT 5 4.0 22:13:02 45° NW 22:13:02 45° NW 22:16:54 10° NNW
ATLAS 2AS CENTAUR R/B 3.6 22:08:17 10° WSW 22:16:04 53° NNW 22:23:38 10° NE
ATLAS 3B R/B 4.3 22:11:08 10° WNW 22:16:20 23° WSW 22:17:06 23° WSW
Lacrosse 5 rocket 4.4 22:31:26 10° WNW 22:31:57 13° WNW 22:31:57 13° WNW
NOSS 3-1 (C) 4.1 22:30:40 10° NW 22:37:24 66° NNE 22:37:24 66° NNE
CZ-4C R/B 4.2 22:45:17 22° NE 22:45:17 22° NE 22:47:31 10° NE
Cosmos 2082 Rocket 4.4 22:42:20 10° WNW 22:44:59 16° W 22:44:59 16° W
COSMOS 2455 4.1 22:57:42 36° N 22:57:42 36° N 23:01:38 10° NNE
Cosmos 2297 Rocket 4.2 22:52:23 10° NNW 22:56:27 21° NNE 22:56:27 21° NNE
Terra 4.1 23:00:38 20° NW 23:00:38 20° NW 23:02:24 10° NNW
Cosmos 2369 Rocket 4.4 23:10:31 18° NE 23:10:31 18° NE 23:11:56 10° NNE
Cosmos 2278 Rocket 4.4 23:16:03 10° W 23:20:16 21° NNW 23:24:29 10° NNE
SL-16 R/B 4.5 23:50:37 20° NE 23:51:07 20° NE 23:55:22 10° N
